NOAA 15 1 25338U 98030A 25187.59641637 .00000183 00000-0 93039-4 0 9995 2 25338 98.5339 212.0759 0008999 281.6007 78.4164 14.26992754412001 METEOSAT 8 (MSG 1) 1 27509U 02040B 25187.44912374 -.00000168 00000-0 00000-0 0 9992 2 27509 10.5720 43.9307 0015389 66.9819 115.4869 0.97905803 83557 KALPANA 1 (METSAT 1) 1 27525U 02043A 25187.37749115 -.00000001 00000-0 00000-0 0 9992 2 27525 12.4825 35.0630 0007491 130.6209 148.3189 0.98336728 83083 NOAA 18 1 28654U 05018A 25187.58933605 .00000051 00000-0 50257-4 0 9990 2 28654 98.8422 266.7618 0015091 55.9918 304.2685 14.13617058 37485 METEOSAT 9 (MSG 2) 1 28912U 05049B 25186.71667764 .00000133 00000-0 00000-0 0 9993 2 28912 8.5690 57.4843 0001696 353.5345 176.6994 1.00267667 3531 HIMAWARI 7 1 28937U 06004A 25187.56246921 -.00000189 00000-0 00000-0 0 9996 2 28937 4.8903 77.2383 0007069 141.3268 260.5661 0.99079490 70800 FORMOSAT 3A 1 29047U 06011A 25187.61259297 .00000380 00000-0 15830-3 0 9995 2 29047 71.9782 299.5787 0047341 116.9252 243.6734 14.30983544 4969 FORMOSAT 3B 1 29048U 06011B 25187.39415992 .00000298 00000-0 12788-3 0 9994 2 29048 71.9641 208.8470 0040514 77.8509 282.7163 14.30969065 7304 FORMOSAT 3C 1 29049U 06011C 25187.58868544 .00000295 00000-0 12705-3 0 9997 2 29049 72.0191 30.5924 0032768 88.1119 272.3772 14.30993438 3224 FORMOSAT 3D 1 29050U 06011D 25187.57096074 .00001252 00000-0 23663-3 0 9998 2 29050 72.0146 340.3372 0045101 202.6983 157.2180 14.65568771 25710 FORMOSAT 3E 1 29051U 06011E 25187.57958208 .00000222 00000-0 97427-4 0 9991 2 29051 72.0046 288.9199 0067289 329.5318 30.1916 14.31120040 5817 FORMOSAT 3F 1 29052U 06011F 25187.59786025 .00000310 00000-0 13200-3 0 9994 2 29052 72.0332 8.6561 0038138 41.0386 319.3610 14.31200331 3338 GOES 13 1 29155U 06018A 25187.01355596 -.00000039 00000-0 00000-0 0 9997 2 29155 3.6304 80.6861 0060004 267.3227 40.3766 0.98787322 39822 METOP-A 1 29499U 06044A 25187.59071341 .00002064 00000-0 24852-3 0 9996 2 29499 98.3315 279.1078 0180221 90.0405 22.6702 14.74134917974505 FENGYUN 2D 1 29640U 06053A 25187.44990566 -.00000194 00000-0 00000-0 0 9996 2 29640 10.3102 43.6394 0009987 32.9876 153.8189 0.98195375 67608 FENGYUN 3A 1 32958U 08026A 25187.45283831 .00000074 00000-0 55335-4 0 9996 2 32958 98.6485 130.5540 0009621 49.1399 311.0609 14.19452316886356 FENGYUN 2E 1 33463U 08066A 25187.38352973 .00000012 00000-0 00000-0 0 9995 2 33463 8.4722 57.3987 0001272 64.3181 202.1523 0.99118797 60572 NOAA 19 1 33591U 09005A 25187.60015457 .00000144 00000-0 10080-3 0 9997 2 33591 98.9962 252.4551 0012676 288.7148 71.2648 14.13385741845664 GOES 14 1 35491U 09033A 25187.54274736 -.00000053 00000-0 00000-0 0 9997 2 35491 0.7850 87.7553 0002712 64.4808 219.7754 1.00274554 3120 METEOR-M 1 35865U 09049A 25187.50667882 .00000056 00000-0 44149-4 0 9991 2 35865 98.6867 148.4983 0001487 203.1671 156.9440 14.23029195820083 GOES 15 1 36411U 10008A 25187.57628318 .00000055 00000-0 00000-0 0 9997 2 36411 0.3844 85.3454 0002979 106.2077 1.9696 1.00272875 56177 COMS 1 1 36744U 10032A 25187.58950653 -.00000332 00000-0 00000-0 0 9993 2 36744 3.9302 79.6863 0001050 12.8188 172.6428 1.00272040 47621 FENGYUN 3B 1 37214U 10059A 25187.62864322 .00000045 00000-0 46892-4 0 9990 2 37214 99.0113 226.2706 0023211 86.0130 24.9371 14.14736381758569 NPP 1 37849U 11061A 25187.53741272 .00000037 00000-0 38233-4 0 9997 2 37849 98.7580 126.5086 0000686 182.3487 177.7686 14.19544121709393 FENGYUN 2F 1 38049U 12002A 25187.39589838 -.00000051 00000-0 00000-0 0 9992 2 38049 6.7046 70.0097 0001505 143.9480 128.3524 0.99136364 49371 METEOSAT 10 (MSG 3) 1 38552U 12035B 25187.34998747 .00000012 00000-0 00000-0 0 9991 2 38552 3.8512 62.0583 0000917 55.6629 293.3987 1.00279643 47383 METOP-B 1 38771U 12049A 25187.56758598 .00000067 00000-0 50122-4 0 9995 2 38771 98.5756 241.0231 0000408 112.5097 247.6124 14.21461958664168 FENGYUN 3C 1 39260U 13052A 25187.57705272 .00000077 00000-0 60113-4 0 9998 2 39260 98.4553 173.1854 0013651 301.3354 58.6484 14.15633544609736 METEOR M2 1 40069U 14037A 25187.58281979 .00000087 00000-0 59220-4 0 9993 2 40069 98.4688 171.4333 0005103 332.5820 27.5088 14.21306465570226 HIMAWARI 8 1 40267U 14060A 25187.59209523 -.00000259 00000-0 00000-0 0 9995 2 40267 0.0187 95.8784 0001066 26.1920 156.5428 1.00270778 39286 FENGYUN 2G 1 40367U 14090A 25187.58389704 -.00000288 00000-0 00000-0 0 9990 2 40367 4.7624 77.0428 0003820 139.8833 17.5817 1.00265649 38532 METEOSAT 11 (MSG 4) 1 40732U 15034A 25187.28049866 .00000076 00000-0 00000-0 0 9998 2 40732 2.3353 72.3841 0000676 112.0362 210.3325 1.00268552 3742 ELEKTRO-L 2 1 41105U 15074A 25187.41855177 -.00000105 00000-0 00000-0 0 9996 2 41105 5.8197 74.8037 0000810 191.9192 154.1371 1.00272260 35036 HIMAWARI 9 1 41836U 16064A 25187.59209523 -.00000258 00000-0 00000-0 0 9993 2 41836 0.0387 260.0137 0001462 215.9647 162.7400 1.00273861 31741 GOES 16 1 41866U 16071A 25187.54344241 -.00000073 00000-0 00000-0 0 9991 2 41866 0.0502 227.7821 0001091 274.0202 233.8771 1.00272249 31632 FENGYUN 4A 1 41882U 16077A 25187.58872459 -.00000342 00000-0 00000-0 0 9995 2 41882 1.4403 84.1031 0006642 164.9766 11.3115 1.00266960 31467 CYGFM05 1 41884U 16078A 25187.60441043 .00011139 00000-0 26111-3 0 9991 2 41884 34.9618 0.7824 0008532 138.0808 222.0566 15.41205558475156 CYGFM04 1 41885U 16078B 25187.53149127 .00012347 00000-0 27070-3 0 9999 2 41885 34.9372 339.8137 0007936 162.0620 198.0381 15.43184525475286 CYGFM02 1 41886U 16078C 25187.58655801 .00012735 00000-0 27100-3 0 9991 2 41886 34.9459 339.5255 0009571 155.7510 204.3662 15.44045822475409 CYGFM01 1 41887U 16078D 25187.58440215 .00011022 00000-0 25505-3 0 9998 2 41887 34.9455 4.2704 0008055 123.0687 237.0807 15.41598910475086 CYGFM08 1 41888U 16078E 25187.55368100 .00011908 00000-0 26663-3 0 9997 2 41888 34.9482 349.0528 0010025 149.7497 210.3803 15.42546739475291 CYGFM07 1 41890U 16078G 25187.55199151 .00011975 00000-0 26307-3 0 9997 2 41890 34.9496 338.9444 0008367 168.5667 191.5244 15.43129333475306 CYGFM03 1 41891U 16078H 25187.56163236 .00011684 00000-0 25893-3 0 9990 2 41891 34.9450 340.5544 0007343 152.1382 207.9732 15.42882760475283